Regional Weather Roundup
Issued by NWS

Home | Current Version | Previous Version | Graphics & Text | Print | Product List | Glossary Off
Versions: 1 2 3 4 5 6 7 8 9 10 11 12 13 14 15 16 17 18 19 20 21 22 23 24 25 26 27 28 29 30 31 32 33 34 35 36 37 38 39 40 41 42 43 44 45 46 47 48 49 50

000
ASUS43 KMPX 141801
RWRMN
WEATHER ROUNDUP FOR MINNESOTA
NATIONAL WEATHER SERVICE TWIN CITIES/CHANHASSEN MN
100 PM CDT SUN SEP 14 2014


NOTE: "FAIR" INDICATES FEW OR NO CLOUDS BELOW 12,000 FEET WITH NO
SIGNIFICANT WEATHER AND/OR OBSTRUCTIONS TO VISIBILITY. N/A MEANS
CURRENT SKY AND/OR WEATHER CONDITIONS ARE NOT AVAILABLE.

MNZ060>063-068>070-141900-
   Twin Cities Metro

CITY           SKY/WX    TMP DP  RH WIND       PRES   REMARKS
TWIN CITIES    PTSUNNY   62  39  42 W12G21    30.12F
6HR MIN TEMP:  50; 6HR MAX TEMP:  63;

ST PAUL        MOSUNNY   63  41  44 W15G23    30.12F
CRYSTAL        MOSUNNY   63  39  41 W10       30.11S
BLAINE         PTSUNNY   63  39  42 W13G18    30.11
LAKEVILLE      MOSUNNY   63  45  51 W10       30.13S
EDEN PRAIRIE   PTSUNNY   63  40  42 W12G20    30.12S
6HR MIN TEMP:  48; 6HR MAX TEMP:  64;

SOUTH ST PAUL  MOSUNNY   64  40  42 SW13G18   30.12S
LAKE ELMO      FAIR      63  41  45 W14       30.12S
$$
MNZ001>005-007-008-013>017-022>024-027-028-141900-
   Northwest Minnesota

CITY           SKY/WX    TMP DP  RH WIND       PRES   REMARKS
BEMIDJI        CLOUDY    51  43  73 W12       30.07S
HALLOCK        PTSUNNY   55  46  71 NW14      30.08S
ROSEAU         MOSUNNY   55  46  71 W10       30.05S
WARROAD        PTSUNNY   55  46  71 NW12      30.04S
THIEF RVR FALL CLOUDY    50  45  81 NW8       30.09R
CROOKSTON      CLOUDY    52  45  76 N9        30.11S
FOSSTON        CLOUDY    50  43  76 NW10      30.10R
DETROIT LAKES  CLOUDY    50  43  76 NW10      30.13R
MOORHEAD       PTSUNNY   55  46  71 NW7       30.13S
PARK RAPIDS    CLOUDY    51  43  74 W9        30.10R
MAHNOMEN       CLOUDY    50  44  79 NW8       30.11R
$$
MNZ006-009>011-018-025>026-141900-
   North Central Minnesota

CITY           SKY/WX    TMP DP  RH WIND       PRES   REMARKS
BAUDETTE       PTSUNNY   53  44  71 NW9       30.03R
FLAG ISLAND    MOSUNNY   54  45  71 W12       30.01R
INTL FALLS     RAIN      50  46  86 W15G26    30.00R FOG
6HR MIN TEMP:  46; 6HR MAX TEMP:  55; 6HR PCP: TRACE;

WASKISH        CLOUDY    54  46  76 W3        30.05R
BIG FORK       PTSUNNY   50  45  81 W6        30.05R
LONGVILLE      CLOUDY    54  45  71 W8        30.07R
GRAND RAPIDS   CLOUDY    52  41  66 NW12      30.05S
CRANE LAKE     CLOUDY    52  45  76 W5        29.99S
ORR            CLOUDY    54  41  62 W15       29.98R
COOK           CLOUDY    50  43  76 W13G23    30.02R
WALKER         MOCLDY    52  42  69 W10G20    30.07R
$$
MNZ012-019>021-037-141900-
   Northeast Minnesota

CITY           SKY/WX    TMP DP  RH WIND       PRES   REMARKS
DULUTH         CLOUDY    55  39  54 W16       30.03R
6HR MIN TEMP:  47; 6HR MAX TEMP:  58;

ELY            CLOUDY    52  41  66 W15G23    29.98R
HIBBING        CLOUDY    53  42  66 W10       30.04R
EVELETH        CLOUDY    52  43  71 W13G20    30.03
DULUTH HARBOR  PTSUNNY   61  45  55 W20G26    30.04R
TWO HARBORS    CLOUDY    55  41  58 W13G18    29.99S
SILVER BAY     SUNNY     54  45  71 W5        29.98S
GRAND MARAIS     N/A     53  48  83 SW16      29.95F
G MARAIS ARPRT CLOUDY    52  37  58 SW7G17    29.96S
$$
MNZ029>031-032-039>041-046>048-054>057-064-141900-
   West Central Minnesota

CITY           SKY/WX    TMP DP  RH WIND       PRES   REMARKS
FERGUS FALLS   PTSUNNY   55  39  54 W12       30.14S
WHEATON        PTSUNNY   55  43  62 W5        30.16S
MORRIS         PTSUNNY   57  43  58 W10       30.14R
ALEXANDRIA     MOSUNNY   55  42  61 NW12G17   30.14S
ELBOW LAKE     CLOUDY    54  43  67 NW10      30.14R
WADENA         PTSUNNY   54  43  66 W9        30.11R
GLENWOOD       PTSUNNY   57  43  58 W12       30.14S
APPLETON       CLOUDY    57  43  58 W8        30.15S
BENSON         CLOUDY    57  43  58 NW9       30.15S
ORTONVILLE     CLOUDY    57  41  54 W6        30.15S
MADISON        CLOUDY    61  43  51 N5        30.15S
WILLMAR        FAIR      57  39  51 W9        30.16S
$$
MNZ033>034-036-042>043-049>051-058-059-141900-
   Central Minnesota

CITY           SKY/WX    TMP DP  RH WIND       PRES   REMARKS
ST CLOUD       MOSUNNY   62  40  44 W14       30.11S
6HR MIN TEMP:  46; 6HR MAX TEMP:  62;

SAUK CENTRE    MOCLDY    56  42  58 W10       30.13S
PAYNESVILLE    PTSUNNY   55  40  56 SW14      30.14S
AITKIN         CLOUDY    55  43  62 W7        30.07S
PINE RIVER     CLOUDY    52  43  71 W8        30.12S
BRAINERD       PTSUNNY   54  42  64 W10G22    30.10R
STAPLES        PTSUNNY   55  43  62 W13       30.11R
LONG PRAIRIE   FAIR      54  41  62 W10       30.13R
LITTLE FALLS   MOSUNNY   55  37  50 W10G16    30.11S
LITCHFIELD     PTSUNNY   57  41  54 W8        30.15R
BUFFALO        PTSUNNY   59  40  48 W9        30.13S
MAPLE LAKE     PTSUNNY   60  42  51 W12G17    30.13F
$$
MNZ037-044-045-052-053-141900-
   East Central Minnesota

CITY           SKY/WX    TMP DP  RH WIND       PRES   REMARKS
PRINCETON      MOSUNNY   63  41  45 W12G18    30.11S
MORA           MOSUNNY   55  37  50 W10G17    30.10S
CAMBRIDGE      SUNNY     63  43  48 W13       30.08S
RUSH CITY      SUNNY     60  41  48 W7G16     30.09S
MOOSE LAKE     MOSUNNY   57  39  51 W12G22    30.05R
HINCKLEY       FAIR      57  41  54 W14       30.08S
CLOQUET        CLOUDY    54  39  58 W13       30.05R
MCGREGOR       CLOUDY    54  41  62 W13G18    30.08R
$$
MNZ071>073-080-081-089-090-097-098-141900-
   Southwest Minnesota

CITY           SKY/WX    TMP DP  RH WIND       PRES   REMARKS
MONTEVIDEO     CLOUDY    61  45  55 N8        30.17S
GRANITE FALLS  PTSUNNY   58  41  54 W7        30.18S
CANBY          PTSUNNY   58  39  49 W9        30.17S
MARSHALL       MOSUNNY   63  36  36 W8        30.15F
REDWOOD FALLS  MOSUNNY   62  38  40 NW8       30.15F
OLIVIA         PTSUNNY   59  41  51 W8        30.15S
PIPESTONE      MOSUNNY   61  37  41 W5        30.16S
WINDOM         SUNNY     63  43  48 W8        30.16S
WORTHINGTON    PTSUNNY   61  39  44 N3        30.17F
JACKSON        MOSUNNY   63  37  39 CALM      30.16F
TRACY          MOSUNNY   63  40  43 CALM      30.16S
SLAYTON        MOSUNNY   61  34  36 CALM      30.16F
$$
MNZ065>067-074>077-082>085-091>093-141900-
   South Central Minnesota

CITY           SKY/WX    TMP DP  RH WIND       PRES   REMARKS
MANKATO        MOSUNNY   63  41  45 NW9       30.15F
NEW ULM        MOSUNNY   61  43  51 NW6       30.15F
ST JAMES       SUNNY     64  39  39 W6        30.16F
FAIRMONT       MOSUNNY   64  43  45 CALM      30.16F
GLENCOE        PTSUNNY   60  38  44 W9G16     30.14S
FARIBAULT      MOSUNNY   66  39  37 SW10      30.15S
OWATONNA       SUNNY     63  43  48 W10       30.15S
WASECA         SUNNY     61  36  39 W5        30.16F
ALBERT LEA     SUNNY     63  48  59 SW9       30.15F
$$
MNZ078>079-086>088-094>096-141900-
   Southeast Minnesota

CITY           SKY/WX    TMP DP  RH WIND       PRES   REMARKS
ROCHESTER      MOSUNNY   66  48  52 SW14G22   30.15F
6HR MIN TEMP:  48; 6HR MAX TEMP:  66;

RED WING       SUNNY     66  39  37 W13       30.11F
STANTON        MOSUNNY   63  42  46 W12G17    30.13S
DODGE CENTER   MOSUNNY   63  50  63 SW15      30.15S
WINONA         MOSUNNY   68  50  52 SW9       30.12F
AUSTIN         SUNNY     63  48  59 W14       30.15F
PRESTON        SUNNY     64  52  66 SW15      30.15F
$$
ABBREVIATIONS USED IN REMARKS
   TC - TEMPERATURES IN CELSIUS
  WCI - WIND CHILL INDEX
   HX - HEAT INDEX
  VSB - VISIBILITY
$$


USA.gov is the U.S. government's official web portal to all federal, state and local government web resources and services.